This demonstration page uses our WeatherBlox Daily Observations layout. Learn more.

Left ArrowRight Arrow

Hourly Observations for December 14, 2020

Temp ( °F °C ) Dew Point ( °F °C ) Humidity (%) Winds ( mph kmh ) Pressure ( in mb ) Visibility ( mi km ) Precip ( " mm )
12:54 am 00:54 Clear 10 -12.2 7 -13.9 87 87 NNE 9 15 30.36 1028 10 16.0934 0 0
1:54 am 01:54 Clear 12 -11.1 7 -13.9 80 80 N 5 7 30.36 1028 10 16.0934 0 0
2:54 am 02:54 Clear 13 -10.6 9 -12.8 84 84 Calm 30.37 1029 10 16.0934 0 0
3:54 am 03:54 Clear 8 -13.3 5 -15 87 87 Calm 30.36 1028 10 16.0934 0 0
4:54 am 04:54 Clear 6 -14.4 2 -16.7 83 83 NNW 3 6 30.4 1029 10 16.0934 0 0
5:54 am 05:54 Clear 6 -14.4 3 -16.1 87 87 N 7 11 30.4 1029 10 16.0934 0 0
6:54 am 06:54 Clear 11 -11.7 6 -14.4 81 81 NW 5 7 30.4 1030 10 16.0934 0 0
7:54 am 07:54 Sunny 8 -13.3 4 -15.6 83 83 N 3 6 30.41 1030 10 16.0934 0 0
8:54 am 08:54 Sunny 11 -11.7 6 -14.4 81 81 Calm 30.41 1030 10 16.0934 0 0
9:54 am 09:54 Sunny 16 -8.9 9 -12.8 74 74 ENE 6 9 30.43 1031 10 16.0934 0 0
10:54 am 10:54 Sunny 19 -7.2 11 -11.7 71 71 ENE 6 9 30.45 1031 10 16.0934 0 0
11:54 am 11:54 Sunny 21 -6.1 11 -11.7 65 65 NE 5 7 30.43 1030 10 16.0934 0 0
12:54 pm 12:54 Sunny 23 -5 12 -11.1 63 63 ENE 7 11 30.39 1029 10 16.0934 0 0
1:54 pm 13:54 Sunny 22 -5.6 14 -10 71 71 E 7 11 30.37 1029 10 16.0934 0 0
2:54 pm 14:54 Sunny 24 -4.4 13 -10.6 62 62 ENE 7 11 30.35 1028 10 16.0934 0 0
3:54 pm 15:54 Sunny 23 -5 13 -10.6 65 65 ESE 8 13 30.36 1028 10 16.0934 0 0
4:54 pm 16:54 Sunny 22 -5.6 13 -10.6 68 68 E 7 11 30.36 1028 10 16.0934 0 0
5:54 pm 17:54 Clear 20 -6.7 13 -10.6 74 74 ENE 7 11 30.36 1028 10 16.0934 0 0
6:54 pm 18:54 Clear 20 -6.7 13 -10.6 74 74 E 8 13 30.36 1028 10 16.0934 0 0
7:54 pm 19:54 Clear 19 -7.2 13 -10.6 77 77 E 8 13 30.36 1028 10 16.0934 0 0
8:54 pm 20:54 Clear 19 -7.2 13 -10.6 77 77 E 6 9 30.35 1028 10 16.0934 0 0
9:54 pm 21:54 Clear 19 -7.2 13 -10.6 77 77 E 6 9 30.35 1028 10 16.0934 0 0
10:54 pm 22:54 Clear 19 -7.2 13 -10.6 77 77 NE 6 9 30.35 1028 10 16.0934 0 0
11:54 pm 23:54 Clear 19 -7.2 13 -10.6 77 77 NE 8 13 30.34 1027 10 16.0934 0 0

Powered by AerisWeather